When you browse on this site, cookies collect data to enhance your experience and personalize the content and advertising you see.
Visit our Privacy Policy to learn more. By continuing to use the site, you agree to this use of cookies and data.
  • In Austria
  • List of Countries
  • For 7 days
  • Water Temperature
  • Satellite Maps
  • Weather Map
  • News
  • Weather Widgets
  • user-avatar
    Login

    Hourly Weather Pozhnya

    Today, 20 February, Wednesday

    Time Temperature Precipitation Wind Pressure Humidity
    00:00 0°C° 0.1 mm 4 mps 735 mmHg 92%
    01:00 0°C° 0.1 mm 4 mps 734 mmHg 92%
    02:00 0°C° 0 mm 5 mps 734 mmHg 93%
    03:00 0°C° 0.1 mm 5 mps 734 mmHg 93%
    04:00 0°C° 0.1 mm 4 mps 734 mmHg 93%
    05:00 0°C° 0.1 mm 4 mps 733 mmHg 93%
    06:00 0°C° 0.1 mm 4 mps 733 mmHg 92%
    07:00 0°C° 0.1 mm 5 mps 733 mmHg 92%
    08:00 0°C° 0.1 mm 5 mps 733 mmHg 91%
    09:00 0°C° 0.1 mm 5 mps 733 mmHg 90%
    10:00 0°C° 0.1 mm 5 mps 733 mmHg 89%
    11:00 +1°C° 0.1 mm 5 mps 732 mmHg 88%
    12:00 +1°C° 0.3 mm 5 mps 732 mmHg 88%
    13:00 +1°C° 0.3 mm 5 mps 732 mmHg 87%
    14:00 +1°C° 0.3 mm 5 mps 731 mmHg 86%
    15:00 +1°C° 0.6 mm 5 mps 731 mmHg 87%
    16:00 0°C° 0.6 mm 5 mps 731 mmHg 87%
    17:00 0°C° 0.6 mm 5 mps 731 mmHg 88%
    18:00 -1°C° 0.4 mm 5 mps 731 mmHg 85%
    19:00 -2°C° 0.4 mm 5 mps 731 mmHg 81%
    20:00 -4°C° 0.4 mm 5 mps 732 mmHg 78%
    21:00 -4°C° 0.2 mm 6 mps 732 mmHg 78%
    22:00 -5°C° 0.2 mm 6 mps 733 mmHg 79%
    23:00 -6°C° 0.2 mm 6 mps 734 mmHg 79%

    Tomorrow, 21 February, Thursday

    Time Temperature Precipitation Wind Pressure Humidity
    00:00 -6°C° 0.1 mm 6 mps 734 mmHg 79%
    01:00 -8°C° 0.1 mm 6 mps 735 mmHg 79%
    02:00 -8°C° 0.1 mm 6 mps 735 mmHg 79%
    03:00 -9°C° 0.2 mm 6 mps 735 mmHg 78%
    04:00 -9°C° 0.2 mm 6 mps 736 mmHg 78%
    05:00 -9°C° 0.2 mm 6 mps 736 mmHg 78%
    06:00 -9°C° 0.2 mm 6 mps 737 mmHg 78%
    07:00 -9°C° 0.2 mm 7 mps 737 mmHg 78%
    08:00 -9°C° 0.2 mm 7 mps 738 mmHg 79%
    09:00 -9°C° 0.1 mm 7 mps 739 mmHg 77%
    10:00 -9°C° 0.1 mm 7 mps 740 mmHg 75%
    11:00 -8°C° 0.1 mm 7 mps 741 mmHg 74%
    12:00 -8°C° 0 mm 7 mps 741 mmHg 72%
    13:00 -9°C° 0 mm 6 mps 742 mmHg 71%
    14:00 -9°C° 0 mm 6 mps 743 mmHg 69%
    15:00 -9°C° 0 mm 6 mps 744 mmHg 70%
    16:00 -10°C° 0 mm 6 mps 744 mmHg 70%
    17:00 -11°C° 0 mm 5 mps 745 mmHg 71%
    18:00 -11°C° 0 mm 5 mps 746 mmHg 71%
    19:00 -11°C° 0 mm 5 mps 747 mmHg 72%
    20:00 -12°C° 0 mm 5 mps 747 mmHg 72%
    21:00 -12°C° 0 mm 5 mps 748 mmHg 73%
    22:00 -11°C° 0 mm 4 mps 748 mmHg 73%
    23:00 -12°C° 0 mm 4 mps 749 mmHg 74%

    Day after tomorrow, 22 February, Friday

    Time Temperature Precipitation Wind Pressure Humidity
    00:00 -12°C° 0 mm 4 mps 749 mmHg 75%
    01:00 -14°C° 0 mm 4 mps 750 mmHg 75%
    02:00 -14°C° 0 mm 4 mps 750 mmHg 76%
    03:00 -14°C° 0 mm 4 mps 751 mmHg 76%
    04:00 -14°C° 0 mm 4 mps 751 mmHg 76%
    05:00 -14°C° 0 mm 4 mps 752 mmHg 76%
    06:00 -14°C° 0 mm 4 mps 752 mmHg 76%
    07:00 -14°C° 0 mm 5 mps 753 mmHg 76%
    08:00 -14°C° 0 mm 5 mps 753 mmHg 76%
    09:00 -13°C° 0 mm 5 mps 753 mmHg 74%
    10:00 -12°C° 0 mm 6 mps 754 mmHg 71%
    11:00 -12°C° 0 mm 6 mps 754 mmHg 68%
    12:00 -11°C° 0 mm 6 mps 754 mmHg 64%
    13:00 -12°C° 0 mm 7 mps 754 mmHg 61%
    14:00 -11°C° 0 mm 7 mps 755 mmHg 57%
    15:00 -10°C° 0 mm 6 mps 755 mmHg 61%
    16:00 -11°C° 0 mm 6 mps 755 mmHg 66%
    17:00 -11°C° 0 mm 6 mps 756 mmHg 70%
    18:00 -11°C° 0.1 mm 6 mps 756 mmHg 71%
    19:00 -12°C° 0.1 mm 6 mps 757 mmHg 73%
    20:00 -12°C° 0.1 mm 5 mps 757 mmHg 74%
    21:00 -13°C° 0 mm 5 mps 758 mmHg 76%
    22:00 -12°C° 0 mm 4 mps 758 mmHg 77%
    23:00 -14°C° 0 mm 4 mps 758 mmHg 78%

    23 February, Saturday

    Time Temperature Precipitation Wind Pressure Humidity
    00:00 -14°C° 0 mm 4 mps 759 mmHg 80%
    01:00 -14°C° 0 mm 4 mps 759 mmHg 82%
    02:00 -15°C° 0 mm 4 mps 760 mmHg 84%
    03:00 -14°C° 0 mm 3 mps 760 mmHg 85%
    04:00 -14°C° 0 mm 3 mps 760 mmHg 86%
    05:00 -15°C° 0 mm 3 mps 760 mmHg 88%
    06:00 -15°C° 0 mm 3 mps 760 mmHg 88%
    07:00 -15°C° 0 mm 3 mps 760 mmHg 88%
    08:00 -15°C° 0 mm 3 mps 761 mmHg 88%
    09:00 -13°C° 0 mm 3 mps 761 mmHg 83%
    10:00 -12°C° 0 mm 3 mps 761 mmHg 77%
    11:00 -9°C° 0 mm 2 mps 761 mmHg 72%
    12:00 -9°C° 0 mm 2 mps 760 mmHg 70%
    13:00 -8°C° 0 mm 2 mps 760 mmHg 68%
    14:00 -8°C° 0 mm 2 mps 760 mmHg 66%
    15:00 -8°C° 0 mm 2 mps 760 mmHg 68%
    16:00 -8°C° 0 mm 2 mps 759 mmHg 70%
    17:00 -8°C° 0 mm 2 mps 759 mmHg 72%
    18:00 -8°C° 0 mm 2 mps 759 mmHg 74%
    19:00 -8°C° 0 mm 2 mps 759 mmHg 76%
    20:00 -8°C° 0 mm 2 mps 758 mmHg 78%
    21:00 -7°C° 0.1 mm 2 mps 758 mmHg 82%
    22:00 -7°C° 0.1 mm 2 mps 757 mmHg 86%
    23:00 -8°C° 0.1 mm 3 mps 757 mmHg 89%

    24 February, Sunday

    Time Temperature Precipitation Wind Pressure Humidity
    00:00 -8°C° 0.1 mm 3 mps 757 mmHg 90%
    01:00 -7°C° 0.1 mm 2 mps 756 mmHg 91%
    02:00 -6°C° 0.1 mm 2 mps 756 mmHg 92%
    03:00 -6°C° 0.2 mm 2 mps 756 mmHg 93%
    04:00 -6°C° 0.2 mm 2 mps 756 mmHg 94%
    05:00 -4°C° 0.2 mm 1 mps 756 mmHg 95%
    06:00 -4°C° 0 mm 1 mps 756 mmHg 95%
    07:00 -3°C° 0 mm 1 mps 756 mmHg 96%
    08:00 -3°C° 0 mm 1 mps 756 mmHg 96%
    09:00 -2°C° 0 mm 1 mps 756 mmHg 94%
    10:00 -1°C° 0 mm 1 mps 756 mmHg 92%
    11:00 0°C° 0 mm 1 mps 757 mmHg 91%
    12:00 0°C° 0 mm 0 mps 757 mmHg 90%
    13:00 0°C° 0 mm 0 mps 757 mmHg 90%
    14:00 +1°C° 0 mm 0 mps 757 mmHg 90%
    15:00 0°C° 0 mm 0 mps 757 mmHg 92%
    16:00 +1°C° 0 mm 1 mps 757 mmHg 93%
    17:00 0°C° 0 mm 1 mps 757 mmHg 95%
    18:00 0°C° 0 mm 1 mps 757 mmHg 96%
    19:00 0°C° 0 mm 1 mps 757 mmHg 96%
    20:00 0°C° 0 mm 1 mps 757 mmHg 96%
    21:00 0°C° 0 mm 1 mps 756 mmHg 96%
    22:00 0°C° 0 mm 1 mps 756 mmHg 95%
    23:00 -2°C° 0 mm 2 mps 756 mmHg 94%

    25 February, Monday

    Time Temperature Precipitation Wind Pressure Humidity
    00:00 -2°C° 0 mm 2 mps 756 mmHg 93%
    01:00 -2°C° 0 mm 2 mps 755 mmHg 92%
    02:00 -2°C° 0 mm 2 mps 755 mmHg 91%
    03:00 -2°C° 0 mm 2 mps 754 mmHg 92%
    04:00 -2°C° 0 mm 3 mps 754 mmHg 92%
    05:00 -2°C° 0 mm 3 mps 753 mmHg 93%
    06:00 -2°C° 0 mm 3 mps 753 mmHg 93%
    07:00 -1°C° 0 mm 3 mps 753 mmHg 94%
    08:00 -1°C° 0 mm 3 mps 752 mmHg 95%
    09:00 -1°C° 0 mm 3 mps 752 mmHg 94%
    10:00 -1°C° 0 mm 4 mps 752 mmHg 92%
    11:00 -1°C° 0 mm 4 mps 752 mmHg 91%
    12:00 -1°C° 0 mm 4 mps 751 mmHg 89%
    13:00 -1°C° 0 mm 4 mps 751 mmHg 87%
    14:00 -1°C° 0 mm 4 mps 751 mmHg 85%
    15:00 -1°C° 0.1 mm 4 mps 751 mmHg 85%
    16:00 -2°C° 0.1 mm 4 mps 751 mmHg 85%
    17:00 -1°C° 0.1 mm 3 mps 751 mmHg 85%
    18:00 -1°C° 0 mm 3 mps 751 mmHg 86%
    19:00 -1°C° 0 mm 3 mps 751 mmHg 87%
    20:00 -1°C° 0 mm 3 mps 751 mmHg 88%
    21:00 -2°C° 0 mm 3 mps 751 mmHg 89%
    22:00 -2°C° 0 mm 3 mps 751 mmHg 89%
    23:00 -2°C° 0 mm 3 mps 751 mmHg 90%
    Show more